FFT42B KSYR-KBOS

Flight info

Callsign FFT42B
Flight time 1h 1m
Altitude 33000
Route LAMMS PONCT JFUND2
Aircraft A20N/M-SDE2E3FGHIRWXY/LB1

Departure

Time 2026-04-27 21:43
Airport Syracuse Hancock International Airport (KSYR)

Arrival

Time 2026-04-27 22:45
Airport Boston Logan International Airport (KBOS)
Time Latitude Longitude Altitude Speed Heading
2026-04-27 21:18 43.11343 -76.10983 416 ft 0 kts 188°
2026-04-27 21:32 43.11347 -76.10982 413 ft 2 kts 186°
2026-04-27 21:32 43.11364 -76.10979 412 ft 2 kts 189°
2026-04-27 21:32 43.11380 -76.10975 418 ft 2 kts 180°
2026-04-27 21:32 43.11393 -76.10986 416 ft 2 kts 105°
2026-04-27 21:33 43.11395 -76.11008 414 ft 2 kts 90°
2026-04-27 21:33 43.11395 -76.11016 415 ft 0 kts 88°
2026-04-27 21:35 43.11395 -76.11004 414 ft 3 kts 88°
2026-04-27 21:35 43.11396 -76.10953 420 ft 7 kts 88°
2026-04-27 21:36 43.11400 -76.10870 425 ft 10 kts 85°
2026-04-27 21:36 43.11403 -76.10779 426 ft 6 kts 88°
2026-04-27 21:36 43.11394 -76.10739 427 ft 3 kts 147°
2026-04-27 21:36 43.11364 -76.10737 427 ft 6 kts 177°
2026-04-27 21:37 43.11311 -76.10733 415 ft 9 kts 176°
2026-04-27 21:37 43.11237 -76.10728 422 ft 12 kts 178°
2026-04-27 21:37 43.11140 -76.10722 422 ft 16 kts 177°
2026-04-27 21:37 43.11048 -76.10717 423 ft 9 kts 178°
2026-04-27 21:38 43.11004 -76.10770 429 ft 11 kts 260°
2026-04-27 21:38 43.11002 -76.10886 420 ft 14 kts 268°
2026-04-27 21:38 43.10997 -76.11020 432 ft 14 kts 266°
2026-04-27 21:38 43.10992 -76.11169 432 ft 17 kts 268°
2026-04-27 21:39 43.10986 -76.11360 418 ft 22 kts 267°
2026-04-27 21:39 43.10978 -76.11586 422 ft 25 kts 267°
2026-04-27 21:39 43.10970 -76.11833 421 ft 24 kts 267°
2026-04-27 21:39 43.10962 -76.12060 423 ft 23 kts 267°
2026-04-27 21:40 43.10956 -76.12263 416 ft 19 kts 267°
2026-04-27 21:40 43.10953 -76.12361 425 ft 3 kts 267°
2026-04-27 21:40 43.10952 -76.12393 426 ft 4 kts 267°
2026-04-27 21:40 43.10950 -76.12433 427 ft 5 kts 267°
2026-04-27 21:41 43.10949 -76.12479 428 ft 5 kts 267°
2026-04-27 21:41 43.10947 -76.12528 427 ft 6 kts 267°
2026-04-27 21:41 43.10945 -76.12593 421 ft 8 kts 267°
2026-04-27 21:41 43.10916 -76.12644 427 ft 5 kts 184°
2026-04-27 21:42 43.10864 -76.12615 426 ft 11 kts 149°
2026-04-27 21:42 43.10827 -76.12584 423 ft 6 kts 127°
2026-04-27 21:42 43.10824 -76.12552 421 ft 0 kts 90°
2026-04-27 21:42 43.10823 -76.12530 425 ft 17 kts 90°
2026-04-27 21:43 43.10844 -76.12028 412 ft 87 kts 88°
2026-04-27 21:43 43.10876 -76.10950 432 ft 139 kts 87°
2026-04-27 21:43 43.10912 -76.09501 787 ft 149 kts 85°
2026-04-27 21:43 43.10924 -76.08112 1470 ft 143 kts 90°
2026-04-27 21:44 43.10982 -76.06772 2094 ft 143 kts 88°
2026-04-27 21:44 43.11053 -76.05326 2468 ft 161 kts 88°
2026-04-27 21:44 43.11116 -76.03731 2874 ft 178 kts 89°
2026-04-27 21:44 43.11383 -76.01964 3285 ft 202 kts 71°
2026-04-27 21:45 43.12232 -76.00298 3781 ft 228 kts 48°
2026-04-27 21:45 43.13404 -75.98656 4308 ft 252 kts 48°
2026-04-27 21:45 43.14670 -75.96871 5090 ft 266 kts 48°
2026-04-27 21:45 43.15981 -75.95019 6083 ft 272 kts 48°
2026-04-27 21:46 43.17333 -75.93116 7000 ft 282 kts 47°
2026-04-27 21:46 43.18681 -75.91202 8040 ft 283 kts 48°
2026-04-27 21:46 43.20055 -75.89226 9059 ft 287 kts 47°
2026-04-27 21:46 43.21421 -75.87210 10138 ft 289 kts 47°
2026-04-27 21:47 43.22736 -75.85095 10839 ft 303 kts 57°
2026-04-27 21:47 43.23551 -75.82324 11204 ft 328 kts 80°
2026-04-27 21:47 43.23506 -75.79120 11676 ft 345 kts 103°
2026-04-27 21:47 43.22584 -75.76035 12452 ft 354 kts 117°
2026-04-27 21:48 43.21398 -75.73083 13276 ft 360 kts 116°
2026-04-27 21:48 43.20294 -75.69978 14177 ft 361 kts 112°
2026-04-27 21:48 43.19343 -75.66763 14962 ft 366 kts 109°
2026-04-27 21:48 43.18494 -75.63449 15750 ft 369 kts 107°
2026-04-27 21:49 43.17703 -75.60113 16514 ft 373 kts 106°
2026-04-27 21:49 43.16915 -75.56694 17279 ft 377 kts 105°
2026-04-27 21:49 43.16132 -75.53286 18011 ft 382 kts 105°
2026-04-27 21:50 43.13895 -75.43619 19816 ft 393 kts 105°
2026-04-27 21:50 43.13055 -75.40023 20422 ft 399 kts 104°
2026-04-27 21:50 43.12204 -75.36380 21041 ft 403 kts 104°
2026-04-27 21:51 43.11344 -75.32701 21655 ft 408 kts 104°
2026-04-27 21:51 43.10472 -75.28980 22242 ft 412 kts 104°
2026-04-27 21:51 43.09602 -75.25269 22820 ft 417 kts 104°
2026-04-27 21:51 43.08708 -75.21468 23415 ft 422 kts 104°
2026-04-27 21:52 43.07802 -75.17625 23969 ft 426 kts 104°
2026-04-27 21:52 43.06884 -75.13731 24436 ft 431 kts 104°
2026-04-27 21:52 43.05956 -75.09807 24908 ft 436 kts 104°
2026-04-27 21:52 43.05017 -75.05840 25384 ft 440 kts 104°
2026-04-27 21:53 43.04065 -75.01837 25810 ft 445 kts 103°
2026-04-27 21:53 43.03101 -74.97777 26262 ft 449 kts 103°
2026-04-27 21:53 43.02138 -74.93727 26673 ft 454 kts 103°
2026-04-27 21:53 43.01157 -74.89611 27110 ft 458 kts 103°
2026-04-27 21:54 43.00158 -74.85433 27517 ft 462 kts 103°
2026-04-27 21:54 42.99154 -74.81242 27940 ft 466 kts 103°
2026-04-27 21:54 42.98153 -74.77069 28324 ft 469 kts 103°
2026-04-27 21:54 42.97129 -74.72808 28704 ft 473 kts 103°
2026-04-27 21:55 42.96097 -74.68521 29094 ft 477 kts 103°
2026-04-27 21:55 42.95056 -74.64204 29401 ft 481 kts 103°
2026-04-27 21:55 42.94003 -74.59846 29779 ft 484 kts 103°
2026-04-27 21:55 42.92942 -74.55462 30138 ft 488 kts 103°
2026-04-27 21:56 42.91871 -74.51047 30460 ft 491 kts 103°
2026-04-27 21:56 42.89704 -74.42143 31107 ft 497 kts 103°
2026-04-27 21:56 42.88611 -74.37665 31445 ft 499 kts 103°
2026-04-27 21:57 42.87510 -74.33165 31861 ft 500 kts 103°
2026-04-27 21:57 42.86407 -74.28671 32287 ft 499 kts 103°
2026-04-27 21:57 42.85303 -74.24174 32710 ft 499 kts 103°
2026-04-27 21:57 42.84210 -74.19730 33090 ft 499 kts 103°
2026-04-27 21:58 42.83105 -74.15246 33231 ft 498 kts 103°
2026-04-27 21:58 42.80895 -74.06304 33235 ft 497 kts 103°
2026-04-27 21:59 42.78682 -73.97378 33239 ft 497 kts 102°
2026-04-27 21:59 42.76473 -73.88507 33229 ft 497 kts 102°
2026-04-27 22:00 42.74830 -73.79469 33227 ft 485 kts 89°
2026-04-27 22:00 42.74611 -73.70382 33232 ft 479 kts 82°
2026-04-27 22:01 42.74558 -73.61354 33233 ft 476 kts 82°
2026-04-27 22:01 42.74486 -73.52406 33230 ft 475 kts 82°
2026-04-27 22:02 42.74409 -73.43379 33229 ft 475 kts 82°
2026-04-27 22:02 42.74325 -73.34431 33230 ft 475 kts 82°
2026-04-27 22:03 42.74233 -73.25400 33232 ft 472 kts 82°
2026-04-27 22:03 42.74133 -73.16528 33229 ft 471 kts 82°
2026-04-27 22:04 42.73642 -73.07526 33240 ft 483 kts 91°
2026-04-27 22:04 42.73093 -73.02892 32992 ft 480 kts 91°
2026-04-27 22:04 42.72754 -72.99992 32568 ft 480 kts 91°
2026-04-27 22:04 42.72492 -72.97740 32156 ft 482 kts 91°
2026-04-27 22:05 42.72232 -72.95481 31699 ft 484 kts 91°
2026-04-27 22:05 42.71971 -72.93214 31244 ft 486 kts 91°
2026-04-27 22:05 42.71713 -72.90969 30852 ft 486 kts 91°
2026-04-27 22:05 42.71449 -72.88686 30397 ft 487 kts 92°
2026-04-27 22:06 42.71184 -72.86401 29809 ft 489 kts 92°
2026-04-27 22:06 42.70916 -72.84105 29254 ft 491 kts 92°
2026-04-27 22:06 42.70653 -72.81845 28805 ft 490 kts 92°
2026-04-27 22:06 42.70384 -72.79564 28452 ft 487 kts 92°
2026-04-27 22:07 42.70117 -72.77296 28125 ft 484 kts 92°
2026-04-27 22:07 42.69850 -72.75043 27784 ft 480 kts 92°
2026-04-27 22:07 42.69584 -72.72801 27418 ft 478 kts 92°
2026-04-27 22:07 42.69320 -72.70579 27090 ft 475 kts 92°
2026-04-27 22:08 42.69057 -72.68368 26786 ft 471 kts 92°
2026-04-27 22:08 42.68800 -72.66206 26461 ft 468 kts 92°
2026-04-27 22:08 42.68541 -72.64027 26158 ft 465 kts 92°
2026-04-27 22:08 42.68284 -72.61862 25826 ft 462 kts 92°
2026-04-27 22:09 42.68026 -72.59707 25567 ft 458 kts 93°
2026-04-27 22:09 42.67772 -72.57605 25312 ft 454 kts 93°
2026-04-27 22:09 42.67515 -72.55491 25005 ft 451 kts 93°
2026-04-27 22:09 42.67261 -72.53396 24650 ft 449 kts 93°
2026-04-27 22:10 42.67007 -72.51297 24152 ft 451 kts 93°
2026-04-27 22:10 42.66839 -72.49909 23822 ft 452 kts 93°
2026-04-27 22:10 42.66496 -72.47074 22980 ft 455 kts 93°
2026-04-27 22:10 42.66238 -72.44941 22470 ft 456 kts 94°
2026-04-27 22:11 42.65980 -72.42826 22205 ft 451 kts 94°
2026-04-27 22:11 42.65726 -72.40769 22069 ft 442 kts 94°
2026-04-27 22:11 42.65473 -72.38730 21962 ft 433 kts 94°
2026-04-27 22:11 42.65224 -72.36732 21865 ft 425 kts 94°
2026-04-27 22:12 42.64978 -72.34768 21773 ft 416 kts 94°
2026-04-27 22:12 42.64738 -72.32846 21676 ft 408 kts 94°
2026-04-27 22:12 42.64504 -72.30964 21601 ft 400 kts 93°
2026-04-27 22:12 42.64283 -72.29139 21490 ft 393 kts 93°
2026-04-27 22:13 42.64068 -72.27315 21268 ft 389 kts 92°
2026-04-27 22:13 42.63861 -72.25506 21039 ft 386 kts 92°
2026-04-27 22:13 42.63657 -72.23703 20786 ft 383 kts 92°
2026-04-27 22:13 42.63455 -72.21918 20515 ft 382 kts 93°
2026-04-27 22:14 42.63256 -72.20160 20253 ft 380 kts 93°
2026-04-27 22:14 42.63054 -72.18390 19985 ft 378 kts 93°
2026-04-27 22:14 42.62852 -72.16622 19722 ft 377 kts 93°
2026-04-27 22:14 42.62650 -72.14869 19463 ft 375 kts 93°
2026-04-27 22:15 42.62446 -72.13118 19209 ft 373 kts 94°
2026-04-27 22:15 42.62247 -72.11401 18956 ft 371 kts 94°
2026-04-27 22:15 42.62045 -72.09673 18717 ft 370 kts 94°
2026-04-27 22:15 42.61843 -72.07952 18445 ft 368 kts 94°
2026-04-27 22:16 42.61641 -72.06234 18154 ft 367 kts 94°
2026-04-27 22:16 42.61440 -72.04523 17859 ft 365 kts 94°
2026-04-27 22:16 42.61239 -72.02823 17602 ft 363 kts 94°
2026-04-27 22:16 42.61038 -72.01158 17377 ft 360 kts 95°
2026-04-27 22:17 42.60831 -71.99482 17157 ft 357 kts 95°
2026-04-27 22:17 42.60625 -71.97825 16942 ft 355 kts 95°
2026-04-27 22:17 42.60419 -71.96178 16722 ft 352 kts 95°
2026-04-27 22:17 42.60216 -71.94559 16510 ft 349 kts 95°
2026-04-27 22:18 42.60013 -71.92935 16298 ft 347 kts 95°
2026-04-27 22:18 42.59812 -71.91328 16085 ft 345 kts 95°
2026-04-27 22:18 42.59612 -71.89727 15886 ft 342 kts 96°
2026-04-27 22:18 42.59415 -71.88149 15677 ft 340 kts 96°
2026-04-27 22:19 42.59217 -71.86561 15468 ft 338 kts 96°
2026-04-27 22:19 42.59021 -71.84989 15262 ft 336 kts 96°
2026-04-27 22:19 42.58829 -71.83449 15060 ft 334 kts 96°
2026-04-27 22:19 42.58635 -71.81896 14860 ft 332 kts 96°
2026-04-27 22:20 42.58431 -71.80357 14659 ft 330 kts 97°
2026-04-27 22:20 42.58205 -71.78830 14460 ft 329 kts 98°
2026-04-27 22:20 42.57966 -71.77313 14260 ft 327 kts 99°
2026-04-27 22:20 42.57720 -71.75807 14048 ft 326 kts 99°
2026-04-27 22:21 42.57474 -71.74313 13845 ft 324 kts 99°
2026-04-27 22:21 42.57228 -71.72828 13639 ft 322 kts 99°
2026-04-27 22:21 42.56988 -71.71367 13448 ft 319 kts 99°
2026-04-27 22:21 42.56748 -71.69896 13249 ft 317 kts 99°
2026-04-27 22:22 42.56511 -71.68436 13057 ft 315 kts 99°
2026-04-27 22:22 42.56278 -71.66990 12865 ft 312 kts 99°
2026-04-27 22:22 42.56050 -71.65569 12675 ft 310 kts 99°
2026-04-27 22:22 42.55822 -71.64142 12486 ft 308 kts 99°
2026-04-27 22:23 42.55596 -71.62725 12297 ft 306 kts 99°
2026-04-27 22:23 42.55373 -71.61317 12106 ft 304 kts 99°
2026-04-27 22:23 42.55150 -71.59918 11984 ft 300 kts 99°
2026-04-27 22:23 42.54909 -71.58548 11862 ft 297 kts 102°
2026-04-27 22:24 42.54621 -71.57174 11782 ft 309 kts 103°
2026-04-27 22:24 42.54325 -71.55749 11726 ft 316 kts 103°
2026-04-27 22:24 42.54029 -71.54327 11616 ft 316 kts 102°
2026-04-27 22:24 42.53732 -71.52901 11495 ft 312 kts 102°
2026-04-27 22:25 42.53438 -71.51491 11383 ft 309 kts 102°
2026-04-27 22:25 42.53144 -71.50092 11259 ft 308 kts 104°
2026-04-27 22:25 42.52752 -71.48732 11131 ft 311 kts 114°
2026-04-27 22:25 42.52163 -71.47496 10991 ft 314 kts 126°
2026-04-27 22:26 42.51406 -71.46447 10804 ft 316 kts 137°
2026-04-27 22:26 42.50501 -71.45591 10600 ft 318 kts 145°
2026-04-27 22:26 42.49549 -71.44821 10381 ft 318 kts 146°
2026-04-27 22:26 42.48594 -71.44060 10153 ft 317 kts 146°
2026-04-27 22:27 42.47656 -71.43318 10023 ft 313 kts 146°
2026-04-27 22:27 42.46726 -71.42584 9955 ft 306 kts 146°
2026-04-27 22:27 42.45817 -71.41867 9885 ft 300 kts 146°
2026-04-27 22:27 42.44915 -71.41156 9777 ft 295 kts 146°
2026-04-27 22:28 42.44031 -71.40459 9608 ft 292 kts 146°
2026-04-27 22:28 42.43162 -71.39776 9404 ft 291 kts 146°
2026-04-27 22:28 42.42286 -71.39085 9206 ft 290 kts 146°
2026-04-27 22:28 42.41410 -71.38395 8988 ft 290 kts 146°
2026-04-27 22:29 42.40552 -71.37716 8785 ft 289 kts 146°
2026-04-27 22:29 42.39685 -71.37028 8573 ft 288 kts 146°
2026-04-27 22:29 42.38819 -71.36337 8390 ft 287 kts 146°
2026-04-27 22:29 42.37958 -71.35649 8186 ft 287 kts 146°
2026-04-27 22:30 42.37096 -71.34962 7984 ft 286 kts 146°
2026-04-27 22:30 42.36247 -71.34284 7783 ft 286 kts 146°
2026-04-27 22:30 42.35391 -71.33597 7596 ft 285 kts 146°
2026-04-27 22:30 42.34541 -71.32914 7414 ft 283 kts 146°
2026-04-27 22:31 42.33700 -71.32236 7221 ft 283 kts 146°
2026-04-27 22:31 42.32856 -71.31553 7035 ft 282 kts 146°
2026-04-27 22:31 42.32020 -71.30876 6833 ft 282 kts 146°
2026-04-27 22:31 42.31179 -71.30194 6652 ft 281 kts 146°
2026-04-27 22:32 42.30340 -71.29513 6452 ft 280 kts 146°
2026-04-27 22:32 42.29509 -71.28836 6273 ft 278 kts 146°
2026-04-27 22:32 42.28692 -71.28166 6100 ft 277 kts 146°
2026-04-27 22:32 42.27869 -71.27491 5928 ft 276 kts 146°
2026-04-27 22:33 42.27048 -71.26820 5753 ft 274 kts 146°
2026-04-27 22:33 42.26238 -71.26137 5573 ft 272 kts 141°
2026-04-27 22:33 42.25536 -71.25294 5382 ft 268 kts 127°
2026-04-27 22:33 42.25006 -71.24272 5213 ft 264 kts 117°
2026-04-27 22:34 42.24563 -71.23205 5036 ft 263 kts 116°
2026-04-27 22:34 42.24123 -71.22122 4838 ft 262 kts 116°
2026-04-27 22:34 42.23684 -71.21043 4656 ft 261 kts 116°
2026-04-27 22:34 42.23395 -71.20333 4528 ft 261 kts 116°
2026-04-27 22:35 42.22959 -71.19264 4331 ft 260 kts 116°
2026-04-27 22:35 42.22523 -71.18189 4139 ft 260 kts 116°
2026-04-27 22:35 42.22090 -71.17120 3957 ft 259 kts 116°
2026-04-27 22:35 42.21662 -71.16071 3848 ft 255 kts 116°
2026-04-27 22:36 42.21253 -71.15027 3799 ft 249 kts 113°
2026-04-27 22:36 42.20911 -71.13966 3720 ft 243 kts 105°
2026-04-27 22:36 42.20728 -71.12868 3555 ft 237 kts 91°
2026-04-27 22:36 42.20766 -71.11778 3355 ft 229 kts 76°
2026-04-27 22:37 42.21015 -71.10785 3165 ft 219 kts 61°
2026-04-27 22:37 42.21433 -71.09944 2974 ft 214 kts 46°
2026-04-27 22:37 42.21985 -71.09313 2796 ft 209 kts 32°
2026-04-27 22:37 42.22635 -71.08888 2629 ft 206 kts 21°
2026-04-27 22:38 42.23312 -71.08564 2466 ft 206 kts 22°
2026-04-27 22:38 42.23976 -71.08195 2306 ft 205 kts 27°
2026-04-27 22:38 42.24603 -71.07750 2239 ft 201 kts 32°
2026-04-27 22:38 42.25188 -71.07244 2114 ft 199 kts 37°
2026-04-27 22:39 42.25728 -71.06679 1972 ft 198 kts 41°
2026-04-27 22:39 42.26248 -71.06083 1877 ft 194 kts 43°
2026-04-27 22:39 42.26754 -71.05482 1754 ft 193 kts 43°
2026-04-27 22:39 42.27279 -71.04919 1656 ft 192 kts 34°
2026-04-27 22:40 42.27866 -71.04504 1570 ft 190 kts 24°
2026-04-27 22:40 42.28492 -71.04212 1469 ft 189 kts 18°
2026-04-27 22:40 42.29129 -71.03989 1385 ft 189 kts 15°
2026-04-27 22:40 42.29759 -71.03789 1255 ft 189 kts 16°
2026-04-27 22:41 42.30395 -71.03555 1122 ft 189 kts 20°
2026-04-27 22:41 42.31003 -71.03266 1066 ft 178 kts 23°
2026-04-27 22:41 42.31550 -71.02946 969 ft 168 kts 27°
2026-04-27 22:41 42.32084 -71.02639 819 ft 163 kts 24°
2026-04-27 22:42 42.32611 -71.02384 696 ft 157 kts 22°
2026-04-27 22:42 42.33121 -71.02150 544 ft 153 kts 23°
2026-04-27 22:42 42.33608 -71.01908 413 ft 149 kts 23°
2026-04-27 22:42 42.34087 -71.01678 312 ft 143 kts 22°
2026-04-27 22:43 42.34551 -71.01462 213 ft 138 kts 23°
2026-04-27 22:43 42.34996 -71.01242 125 ft 133 kts 23°
2026-04-27 22:43 42.35426 -71.01029 36 ft 130 kts 23°
2026-04-27 22:43 42.35832 -71.00831 29 ft 112 kts 19°
2026-04-27 22:44 42.36148 -71.00678 27 ft 83 kts 20°
2026-04-27 22:44 42.36374 -71.00567 27 ft 55 kts 20°
2026-04-27 22:44 42.36552 -71.00481 26 ft 54 kts 19°
2026-04-27 22:44 42.36735 -71.00444 26 ft 53 kts 356°
2026-04-27 22:45 42.36898 -71.00477 29 ft 32 kts 349°
2026-04-27 22:45 42.36945 -71.00489 27 ft 8 kts 349°
2026-04-27 22:45 42.36975 -71.00497 26 ft 10 kts 349°
2026-04-27 22:45 42.37015 -71.00507 28 ft 13 kts 349°
2026-04-27 22:46 42.37066 -71.00533 26 ft 18 kts 329°
2026-04-27 22:46 42.37119 -71.00597 27 ft 23 kts 315°
2026-04-27 22:46 42.37182 -71.00684 26 ft 28 kts 314°
2026-04-27 22:46 42.37255 -71.00782 27 ft 30 kts 316°
2026-04-27 22:47 42.37313 -71.00856 25 ft 10 kts 317°
2026-04-27 22:47 42.37323 -71.00874 28 ft 5 kts 303°
2026-04-27 22:47 42.37320 -71.00888 27 ft 3 kts 244°
2026-04-27 22:47 42.37309 -71.00899 28 ft 5 kts 211°
2026-04-27 22:48 42.37286 -71.00916 26 ft 10 kts 207°
2026-04-27 22:48 42.37247 -71.00941 29 ft 15 kts 205°
2026-04-27 22:48 42.37192 -71.00976 27 ft 19 kts 205°
2026-04-27 22:48 42.37128 -71.01018 29 ft 22 kts 206°
2026-04-27 22:49 42.37060 -71.01062 30 ft 21 kts 206°
2026-04-27 22:49 42.36996 -71.01105 26 ft 21 kts 207°
2026-04-27 22:49 42.36941 -71.01159 25 ft 12 kts 220°
2026-04-27 22:49 42.36908 -71.01197 27 ft 14 kts 220°
2026-04-27 22:50 42.36873 -71.01236 25 ft 8 kts 220°
2026-04-27 22:50 42.36850 -71.01264 25 ft 10 kts 222°
2026-04-27 22:50 42.36831 -71.01304 28 ft 10 kts 259°
2026-04-27 22:50 42.36845 -71.01346 27 ft 11 kts 306°
2026-04-27 22:51 42.36875 -71.01382 25 ft 12 kts 316°
2026-04-27 22:51 42.36908 -71.01428 25 ft 14 kts 313°
2026-04-27 22:51 42.36946 -71.01479 29 ft 16 kts 315°
2026-04-27 22:51 42.36986 -71.01536 25 ft 15 kts 313°
2026-04-27 22:52 42.36995 -71.01575 25 ft 7 kts 255°
2026-04-27 22:52 42.36974 -71.01597 26 ft 7 kts 212°
2026-04-27 22:52 42.36952 -71.01617 25 ft 7 kts 218°
2026-04-27 22:52 42.36952 -71.01632 26 ft 2 kts 295°
2026-04-27 22:53 42.36959 -71.01644 28 ft 4 kts 308°
2026-04-27 22:53 42.36969 -71.01666 26 ft 6 kts 296°
2026-04-27 22:53 42.36978 -71.01697 25 ft 7 kts 289°
2026-04-27 22:53 42.36982 -71.01716 28 ft 0 kts 289°